EW4706 Weather Reports


time (UTC)temp
C
wind
direction
speed
KPH
gust
KPH
rain 1hr
cm
rain 24hr
cm
rain mn
cm
humidity
%
barometer
mb
20260504050004 9 236 0.0 8.0 0.00 0.00 0.00 49 1016.5
20260504044507 9 243 3.2 9.7 0.00 0.00 0.00 48 1016.4
20260504043100 9 217 3.2 9.7 0.00 0.00 0.00 49 1016.4
20260504041557 9 153 0.0 6.4 0.00 0.00 0.00 50 1016.2
20260504040106 8 265 1.6 8.0 0.00 0.00 0.00 51 1016.0
20260504034615 8 280 0.0 3.2 0.00 0.00 0.00 52 1016.0
20260504033054 8 162 0.0 3.2 0.00 0.00 0.00 51 1016.0
20260504031551 8 142 1.6 3.2 0.00 0.00 0.00 51 1016.0
20260504030118 8 281 0.0 3.2 0.00 0.00 0.00 49 1015.9
20260504024555 8 146 0.0 1.6 0.00 0.00 0.00 50 1016.0
20260504023050 8 158 0.0 3.2 0.00 0.00 0.00 50 1016.1
20260504021552 8 163 1.6 3.2 0.00 0.00 0.00 50 1016.0
20260504020051 9 160 1.6 3.2 0.00 0.00 0.00 49 1016.0
20260504014554 9 160 1.6 3.2 0.00 0.00 0.00 46 1015.9
20260504013054 9 170 1.6 4.8 0.00 0.00 0.00 45 1015.8
20260504011547 9 162 1.6 3.2 0.00 0.00 0.00 46 1015.7
20260504010046 10 158 1.6 3.2 0.00 0.00 0.00 47 1015.5
20260504004546 11 174 0.0 6.4 0.00 0.00 0.00 42 1015.3
20260504003045 11 289 0.0 6.4 0.00 0.00 0.00 38 1015.1
20260504001559 11 291 0.0 4.8 0.00 0.00 0.00 38 1015.0
20260504000044 12 330 0.0 4.8 0.00 0.00 0.00 38 1014.8
20260503234544 12 208 1.6 8.0 0.00 0.00 0.00 36 1014.6
20260503233043 12 312 4.8 11.3 0.00 0.00 0.00 34 1014.5
20260503231546 13 26 3.2 9.7 0.00 0.00 0.00 34 1014.4
20260503230043 13 298 3.2 19.3 0.00 0.00 0.00 34 1014.2
20260503224542 13 9 3.2 17.7 0.00 0.00 0.00 34 1014.2
20260503223041 13 9 3.2 11.3 0.00 0.00 0.00 34 1014.1
20260503221544 13 295 3.2 16.1 0.00 0.00 0.00 33 1014.1
20260503220040 13 8 8.0 24.1 0.00 0.00 0.00 32 1014.1
20260503214540 13 314 8.0 24.1 0.00 0.00 0.00 32 1014.0
20260503213043 13 326 8.0 29.0 0.00 0.00 0.00 32 1014.0
20260503211538 13 49 4.8 32.2 0.00 0.00 0.00 32 1013.8
20260503210036 13 322 11.3 27.4 0.00 0.00 0.00 31 1013.9
20260503204536 13 309 6.4 17.7 0.00 0.00 0.00 32 1013.9
20260503203034 12 244 4.8 30.6 0.00 0.00 0.00 31 1014.0
20260503201533 12 333 6.4 25.7 0.00 0.00 0.00 33 1014.2
20260503200033 12 20 12.9 25.7 0.00 0.00 0.00 33 1014.2
20260503194533 12 360 4.8 20.9 0.00 0.00 0.00 34 1014.4
20260503193031 12 302 6.4 19.3 0.00 0.00 0.00 34 1014.4
20260503191528 12 100 4.8 20.9 0.00 0.00 0.00 35 1014.5
20260503190041 12 342 4.8 16.1 0.00 0.00 0.00 38 1014.6
20260503184525 11 350 9.7 27.4 0.00 0.00 0.00 36 1014.8
20260503183025 11 317 9.7 24.1 0.00 0.00 0.00 36 1015.0
20260503181524 11 302 4.8 19.3 0.00 0.00 0.00 36 1014.9
20260503180035 11 336 9.7 27.4 0.00 0.00 0.00 36 1015.0
20260503174522 10 325 3.2 27.4 0.00 0.00 0.00 38 1015.0
20260503173019 9 286 6.4 22.5 0.00 0.00 0.00 41 1015.3
20260503171531 9 308 8.0 20.9 0.00 0.00 0.00 41 1015.3
20260503140120 7 343 8.0 27.4 0.00 0.00 0.00 52 1015.9
20260503081536 5 10 6.4 19.3 0.00 0.10 0.00 61 1014.1
20260503071517 5 22 6.4 14.5 0.00 0.10 0.00 59 1013.9
20260503054558 6 336 8.0 17.7 0.00 0.10 0.00 57 1014.2
20260503053057 6 1 6.4 16.1 0.00 0.10 0.00 55 1014.5